TimeEST,TemperatureF,Dew PointF,Humidity,Sea Level PressureIn,VisibilityMPH,Wind Direction,Wind SpeedMPH,Gust SpeedMPH,PrecipitationIn,Events,Conditions,WindDirDegrees,DateUTC
12:53 AM,48.9,45.0,86,29.95,9.0,NNE,5.8,-,0.04,Rain,Light Rain,20,2013-02-13 05:53:00
1:53 AM,48.9,45.0,86,29.89,7.0,ENE,8.1,-,0.09,Rain,Rain,70,2013-02-13 06:53:00
2:53 AM,48.0,45.0,89,29.87,5.0,ENE,5.8,-,0.14,Rain,Rain,70,2013-02-13 07:53:00
3:22 AM,48.2,46.4,93,29.86,7.0,ESE,5.8,-,0.02,Rain,Light Rain,110,2013-02-13 08:22:00
3:53 AM,48.0,46.0,93,29.84,10.0,East,3.5,-,0.04,Rain,Light Rain,80,2013-02-13 08:53:00
4:27 AM,48.2,46.4,93,29.82,1.8,ENE,4.6,-,0.12,Rain,Heavy Rain,70,2013-02-13 09:27:00
4:36 AM,48.2,46.4,93,29.81,3.0,East,8.1,-,0.24,Rain,Rain,100,2013-02-13 09:36:00
4:48 AM,48.2,46.4,93,29.78,4.0,ESE,9.2,-,0.28,Rain,Rain,110,2013-02-13 09:48:00
4:53 AM,48.9,46.9,93,29.79,5.0,ESE,11.5,-,0.29,Rain,Light Rain,120,2013-02-13 09:53:00
5:01 AM,48.2,46.4,93,29.80,5.0,East,8.1,19.6,0.00,Rain,Light Rain,90,2013-02-13 10:01:00
5:09 AM,50.0,46.4,87,29.80,7.0,ENE,8.1,-,0.00,Rain,Light Rain,60,2013-02-13 10:09:00
5:53 AM,50.0,48.0,93,29.81,10.0,ENE,5.8,-,0.00,,Overcast,60,2013-02-13 10:53:00
6:53 AM,50.0,48.0,93,29.81,10.0,ENE,5.8,-,N/A,,Overcast,60,2013-02-13 11:53:00
7:01 AM,50.0,48.2,94,29.79,9.0,ENE,6.9,-,0.00,Rain,Light Rain,60,2013-02-13 12:01:00
7:32 AM,51.8,48.2,88,29.78,4.0,East,4.6,-,0.02,Rain,Light Rain,80,2013-02-13 12:32:00
7:53 AM,51.1,48.9,92,29.78,9.0,ENE,6.9,-,0.03,,Overcast,60,2013-02-13 12:53:00
8:27 AM,51.8,48.2,88,29.76,2.0,NE,5.8,-,N/A,,Overcast,50,2013-02-13 13:27:00
8:53 AM,51.1,48.9,92,29.78,3.0,North,6.9,-,N/A,,Overcast,360,2013-02-13 13:53:00
9:04 AM,51.8,48.2,88,29.77,2.0,North,6.9,-,N/A,,Overcast,10,2013-02-13 14:04:00
9:53 AM,50.0,48.9,96,29.78,3.0,North,5.8,-,N/A,,Overcast,360,2013-02-13 14:53:00
10:53 AM,50.0,48.0,93,29.77,10.0,North,3.5,-,N/A,,Overcast,350,2013-02-13 15:53:00
11:53 AM,53.1,50.0,89,29.75,10.0,Calm,Calm,-,N/A,,Overcast,0,2013-02-13 16:53:00
12:53 PM,55.0,52.0,89,29.71,7.0,West,3.5,-,N/A,,Overcast,260,2013-02-13 17:53:00
1:53 PM,57.9,55.0,90,29.70,8.0,WNW,5.8,-,N/A,,Overcast,290,2013-02-13 18:53:00
2:53 PM,59.0,55.9,90,29.68,9.0,SW,6.9,-,N/A,,Overcast,230,2013-02-13 19:53:00
3:53 PM,61.0,57.0,87,29.66,10.0,SW,11.5,-,N/A,,Mostly Cloudy,220,2013-02-13 20:53:00
4:08 PM,60.8,57.2,88,29.67,10.0,SW,10.4,-,N/A,,Mostly Cloudy,220,2013-02-13 21:08:00
4:53 PM,62.1,55.9,80,29.67,10.0,WSW,12.7,-,N/A,,Partly Cloudy,240,2013-02-13 21:53:00
5:53 PM,61.0,55.0,81,29.71,10.0,WSW,12.7,-,N/A,,Clear,240,2013-02-13 22:53:00
6:53 PM,59.0,52.0,78,29.72,10.0,WSW,13.8,-,0.00,Rain,Light Rain,240,2013-02-13 23:53:00
7:53 PM,57.0,50.0,77,29.73,10.0,WSW,19.6,29.9,0.00,Rain,Light Rain,250,2013-02-14 00:53:00
8:53 PM,55.0,48.0,77,29.78,10.0,West,17.3,25.3,0.00,Rain,Light Rain,260,2013-02-14 01:53:00
9:53 PM,54.0,46.9,77,29.77,10.0,West,11.5,-,0.01,,Mostly Cloudy,280,2013-02-14 02:53:00
10:53 PM,53.1,46.9,80,29.80,10.0,West,12.7,-,N/A,,Clear,270,2013-02-14 03:53:00
11:53 PM,52.0,46.9,83,29.83,10.0,West,9.2,-,N/A,,Overcast,270,2013-02-14 04:53:00